Year,Month,Day,Hour,Minute,Value (Times are PST for temperature in C)
2009,08,09,00,00,14.00
2009,08,09,00,01,14.00
2009,08,09,00,02,14.00
2009,08,09,00,03,14.10
2009,08,09,00,04,14.10
2009,08,09,00,05,14.10
2009,08,09,00,06,14.20
2009,08,09,00,07,14.20
2009,08,09,00,08,14.20
2009,08,09,00,09,14.20
2009,08,09,00,10,14.20
2009,08,09,00,11,14.20
2009,08,09,00,12,14.20
2009,08,09,00,13,14.20
2009,08,09,00,14,14.20
2009,08,09,00,15,14.20
2009,08,09,00,16,14.20
2009,08,09,00,17,14.20
2009,08,09,00,18,14.20
2009,08,09,00,19,14.20
2009,08,09,00,20,14.20
2009,08,09,00,21,14.20
2009,08,09,00,22,14.20
2009,08,09,00,23,14.20
2009,08,09,00,24,14.20
2009,08,09,00,25,14.20
2009,08,09,00,26,14.20
2009,08,09,00,27,14.20
2009,08,09,00,28,14.20
2009,08,09,00,29,14.20
2009,08,09,00,30,14.20
2009,08,09,00,31,14.20
2009,08,09,00,32,14.20
2009,08,09,00,33,14.20
2009,08,09,00,34,14.20
2009,08,09,00,35,14.20
2009,08,09,00,36,14.20
2009,08,09,00,37,14.20
2009,08,09,00,38,14.20
2009,08,09,00,39,14.20
2009,08,09,00,40,14.20
2009,08,09,00,41,14.30
2009,08,09,00,42,14.30
2009,08,09,00,43,14.30
2009,08,09,00,44,14.30
2009,08,09,00,45,14.30
2009,08,09,00,46,14.40
2009,08,09,00,47,14.40
2009,08,09,00,48,14.40
2009,08,09,00,49,14.40
2009,08,09,00,50,14.40
2009,08,09,00,51,14.40
2009,08,09,00,52,14.40
2009,08,09,00,53,14.40
2009,08,09,00,54,14.40
2009,08,09,00,55,14.50
2009,08,09,00,56,14.50
2009,08,09,00,57,14.50
2009,08,09,00,58,14.50
2009,08,09,00,59,14.60
2009,08,09,01,00,14.60
2009,08,09,01,01,14.60
2009,08,09,01,02,14.60
2009,08,09,01,03,14.60
2009,08,09,01,04,14.60
2009,08,09,01,05,14.60
2009,08,09,01,06,14.60
2009,08,09,01,07,14.60
2009,08,09,01,08,14.60
2009,08,09,01,09,14.60
2009,08,09,01,10,14.60
2009,08,09,01,11,14.60
2009,08,09,01,12,14.60
2009,08,09,01,13,14.60
2009,08,09,01,14,14.60
2009,08,09,01,15,14.60
2009,08,09,01,16,14.60
2009,08,09,01,17,14.60
2009,08,09,01,18,14.60
2009,08,09,01,19,14.60
2009,08,09,01,20,14.60
2009,08,09,01,21,14.60
2009,08,09,01,22,14.60
2009,08,09,01,23,14.60
2009,08,09,01,24,14.60
2009,08,09,01,25,14.60
2009,08,09,01,26,14.60
2009,08,09,01,27,14.60
2009,08,09,01,28,14.60
2009,08,09,01,29,14.60
2009,08,09,01,30,14.60
2009,08,09,01,31,14.60
2009,08,09,01,32,14.60
2009,08,09,01,33,14.60
2009,08,09,01,34,14.60
2009,08,09,01,35,14.50
2009,08,09,01,36,14.50
2009,08,09,01,37,14.40
2009,08,09,01,38,14.40
2009,08,09,01,39,14.30
2009,08,09,01,40,14.20
2009,08,09,01,41,14.20
2009,08,09,01,42,14.20
2009,08,09,01,43,14.20
2009,08,09,01,44,14.10
2009,08,09,01,45,14.00
2009,08,09,01,46,13.90
2009,08,09,01,47,13.70
2009,08,09,01,48,13.40
2009,08,09,01,49,13.30
2009,08,09,01,50,13.10
2009,08,09,01,51,13.00
2009,08,09,01,52,13.00
2009,08,09,01,53,12.90
2009,08,09,01,54,12.90
2009,08,09,01,55,12.80
2009,08,09,01,56,12.80
2009,08,09,01,57,12.80
2009,08,09,01,58,12.80
2009,08,09,01,59,12.80
2009,08,09,02,00,12.80
2009,08,09,02,01,12.70
2009,08,09,02,02,12.70
2009,08,09,02,03,12.70
2009,08,09,02,04,12.60
2009,08,09,02,05,12.60
2009,08,09,02,06,12.60
2009,08,09,02,07,12.50
2009,08,09,02,08,12.50
2009,08,09,02,09,12.50
2009,08,09,02,10,12.50
2009,08,09,02,11,12.40
2009,08,09,02,12,12.40
2009,08,09,02,13,12.40
2009,08,09,02,14,12.40
2009,08,09,02,15,12.30
2009,08,09,02,16,12.30
2009,08,09,02,17,12.30
2009,08,09,02,18,12.30
2009,08,09,02,19,12.30
2009,08,09,02,20,12.30
2009,08,09,02,21,12.40
2009,08,09,02,22,12.40
2009,08,09,02,23,12.40
2009,08,09,02,24,12.30
2009,08,09,02,25,12.30
2009,08,09,02,26,12.30
2009,08,09,02,27,12.30
2009,08,09,02,28,12.30
2009,08,09,02,29,12.40
2009,08,09,02,30,12.40
2009,08,09,02,31,12.40
2009,08,09,02,32,12.40
2009,08,09,02,33,12.40
2009,08,09,02,34,12.40
2009,08,09,02,35,12.40
2009,08,09,02,36,12.40
2009,08,09,02,37,12.50
2009,08,09,02,38,12.50
2009,08,09,02,39,12.50
2009,08,09,02,40,12.50
2009,08,09,02,41,12.50
2009,08,09,02,42,12.60
2009,08,09,02,43,12.60
2009,08,09,02,44,12.60
2009,08,09,02,45,12.60
2009,08,09,02,46,12.60
2009,08,09,02,47,12.60
2009,08,09,02,48,12.60
2009,08,09,02,49,12.60
2009,08,09,02,50,12.60
2009,08,09,02,51,12.60
2009,08,09,02,52,12.60
2009,08,09,02,53,12.60
2009,08,09,02,54,12.60
2009,08,09,02,55,12.60
2009,08,09,02,56,12.60
2009,08,09,02,57,12.60
2009,08,09,02,58,12.60
2009,08,09,02,59,12.50
2009,08,09,03,00,12.50
2009,08,09,03,01,12.50
2009,08,09,03,02,12.50
2009,08,09,03,03,12.50
2009,08,09,03,04,12.50
2009,08,09,03,05,12.50
2009,08,09,03,06,12.50
2009,08,09,03,07,12.50
2009,08,09,03,08,12.50
2009,08,09,03,09,12.50
2009,08,09,03,10,12.50
2009,08,09,03,11,12.50
2009,08,09,03,12,12.50
2009,08,09,03,13,12.50
2009,08,09,03,14,12.50
2009,08,09,03,15,12.50
2009,08,09,03,16,12.50
2009,08,09,03,17,12.50
2009,08,09,03,18,12.50
2009,08,09,03,19,12.50
2009,08,09,03,20,12.50
2009,08,09,03,21,12.50
2009,08,09,03,22,12.50
2009,08,09,03,23,12.50
2009,08,09,03,24,12.60
2009,08,09,03,25,12.60
2009,08,09,03,26,12.60
2009,08,09,03,27,12.60
2009,08,09,03,28,12.70
2009,08,09,03,29,12.70
2009,08,09,03,30,12.70
2009,08,09,03,31,12.80
2009,08,09,03,32,12.80
2009,08,09,03,33,12.80
2009,08,09,03,34,12.80
2009,08,09,03,35,12.80
2009,08,09,03,36,12.80
2009,08,09,03,37,12.80
2009,08,09,03,38,12.80
2009,08,09,03,39,12.80
2009,08,09,03,40,12.80
2009,08,09,03,41,12.90
2009,08,09,03,42,12.90
2009,08,09,03,43,12.90
2009,08,09,03,44,12.90
2009,08,09,03,45,13.00
2009,08,09,03,46,13.00
2009,08,09,03,47,13.00
2009,08,09,03,48,13.00
2009,08,09,03,49,13.00
2009,08,09,03,50,13.00
2009,08,09,03,51,13.10
2009,08,09,03,52,13.10
2009,08,09,03,53,13.10
2009,08,09,03,54,13.10
2009,08,09,03,55,13.00
2009,08,09,03,56,12.90
2009,08,09,03,57,12.70
2009,08,09,03,58,12.50
2009,08,09,03,59,12.40
2009,08,09,04,00,12.30
2009,08,09,04,01,12.30
2009,08,09,04,02,12.20
2009,08,09,04,03,12.20
2009,08,09,04,04,12.20
2009,08,09,04,05,12.20
2009,08,09,04,06,12.10
2009,08,09,04,07,12.10
2009,08,09,04,08,12.10
2009,08,09,04,09,12.00
2009,08,09,04,10,12.00
2009,08,09,04,11,12.10
2009,08,09,04,12,12.10
2009,08,09,04,13,12.10
2009,08,09,04,14,12.10
2009,08,09,04,15,12.10
2009,08,09,04,16,12.10
2009,08,09,04,17,12.10
2009,08,09,04,18,12.10
2009,08,09,04,19,12.10
2009,08,09,04,20,12.20
2009,08,09,04,21,12.20
2009,08,09,04,22,12.20
2009,08,09,04,23,12.20
2009,08,09,04,24,12.20
2009,08,09,04,25,12.20
2009,08,09,04,26,12.20
2009,08,09,04,27,12.20
2009,08,09,04,28,12.30
2009,08,09,04,29,12.30
2009,08,09,04,30,12.30
2009,08,09,04,31,12.30
2009,08,09,04,32,12.30
2009,08,09,04,33,12.30
2009,08,09,04,34,12.30
2009,08,09,04,35,12.40
2009,08,09,04,36,12.40
2009,08,09,04,37,12.40
2009,08,09,04,38,12.40
2009,08,09,04,39,12.40
2009,08,09,04,40,12.50
2009,08,09,04,41,12.50
2009,08,09,04,42,12.50
2009,08,09,04,43,12.50
2009,08,09,04,44,12.60
2009,08,09,04,45,12.60
2009,08,09,04,46,12.50
2009,08,09,04,47,12.40
2009,08,09,04,48,12.20
2009,08,09,04,49,12.10
2009,08,09,04,50,12.00
2009,08,09,04,51,11.90
2009,08,09,04,52,11.80
2009,08,09,04,53,11.80
2009,08,09,04,54,11.80
2009,08,09,04,55,11.70
2009,08,09,04,56,11.70
2009,08,09,04,57,11.60
2009,08,09,04,58,11.60
2009,08,09,04,59,11.60
2009,08,09,05,00,11.60
2009,08,09,05,01,11.60
2009,08,09,05,02,11.60
2009,08,09,05,03,11.60
2009,08,09,05,04,11.60
2009,08,09,05,05,11.60
2009,08,09,05,06,11.60
2009,08,09,05,07,11.60
2009,08,09,05,08,11.60
2009,08,09,05,09,11.60
2009,08,09,05,10,11.60
2009,08,09,05,11,11.60
2009,08,09,05,12,11.70
2009,08,09,05,13,11.70
2009,08,09,05,14,11.70
2009,08,09,05,15,11.80
2009,08,09,05,16,11.80
2009,08,09,05,17,11.80
2009,08,09,05,18,11.80
2009,08,09,05,19,11.90
2009,08,09,05,20,11.90
2009,08,09,05,21,12.00
2009,08,09,05,22,12.00
2009,08,09,05,23,12.00
2009,08,09,05,24,12.10
2009,08,09,05,25,12.10
2009,08,09,05,26,12.20
2009,08,09,05,27,12.20
2009,08,09,05,28,12.20
2009,08,09,05,29,12.30
2009,08,09,05,30,12.30
2009,08,09,05,31,12.30
2009,08,09,05,32,12.30
2009,08,09,05,33,12.30
2009,08,09,05,34,12.40
2009,08,09,05,35,12.40
2009,08,09,05,36,12.50
2009,08,09,05,37,12.50
2009,08,09,05,38,12.50
2009,08,09,05,39,12.60
2009,08,09,05,40,12.60
2009,08,09,05,41,12.60
2009,08,09,05,42,12.60
2009,08,09,05,43,12.60
2009,08,09,05,44,12.60
2009,08,09,05,45,12.60
2009,08,09,05,46,12.60
2009,08,09,05,47,12.60
2009,08,09,05,48,12.60
2009,08,09,05,49,12.60
2009,08,09,05,50,12.60
2009,08,09,05,51,12.50
2009,08,09,05,52,12.60
2009,08,09,05,53,12.60
2009,08,09,05,54,12.60
2009,08,09,05,55,12.60
2009,08,09,05,56,12.60
2009,08,09,05,57,12.60
2009,08,09,05,58,12.60
2009,08,09,05,59,12.60
2009,08,09,06,00,12.60
2009,08,09,06,01,12.60
2009,08,09,06,02,12.70
2009,08,09,06,03,12.70
2009,08,09,06,04,12.70
2009,08,09,06,05,12.70
2009,08,09,06,06,12.70
2009,08,09,06,07,12.70
2009,08,09,06,08,12.70
2009,08,09,06,09,12.70
2009,08,09,06,10,12.80
2009,08,09,06,11,12.80
2009,08,09,06,12,12.80
2009,08,09,06,13,12.80
2009,08,09,06,14,12.80
2009,08,09,06,15,12.70
2009,08,09,06,16,12.60
2009,08,09,06,17,12.60
2009,08,09,06,18,12.60
2009,08,09,06,19,12.60
2009,08,09,06,20,12.50
2009,08,09,06,21,12.50
2009,08,09,06,22,12.50
2009,08,09,06,23,12.50
2009,08,09,06,24,12.40
2009,08,09,06,25,12.40
2009,08,09,06,26,12.40
2009,08,09,06,27,12.40
2009,08,09,06,28,12.40
2009,08,09,06,29,12.40
2009,08,09,06,30,12.40
2009,08,09,06,31,12.40
2009,08,09,06,32,12.50
2009,08,09,06,33,12.50
2009,08,09,06,34,12.50
2009,08,09,06,35,12.50
2009,08,09,06,36,12.50
2009,08,09,06,37,12.60
2009,08,09,06,38,12.60
2009,08,09,06,39,12.60
2009,08,09,06,40,12.60
2009,08,09,06,41,12.60
2009,08,09,06,42,12.60
2009,08,09,06,43,12.60
2009,08,09,06,44,12.60
2009,08,09,06,45,12.60
2009,08,09,06,46,12.60
2009,08,09,06,47,12.60
2009,08,09,06,48,12.60
2009,08,09,06,49,12.60
2009,08,09,06,50,12.60
2009,08,09,06,51,12.60
2009,08,09,06,52,12.60
2009,08,09,06,53,12.60
2009,08,09,06,54,12.70
2009,08,09,06,55,12.70
2009,08,09,06,56,12.70
2009,08,09,06,57,12.70
2009,08,09,06,58,12.70
2009,08,09,06,59,12.60
2009,08,09,07,00,12.50
2009,08,09,07,01,12.50
2009,08,09,07,02,12.40
2009,08,09,07,03,12.40
2009,08,09,07,04,12.40
2009,08,09,07,05,12.30
2009,08,09,07,06,12.30
2009,08,09,07,07,12.30
2009,08,09,07,08,12.30
2009,08,09,07,09,12.30
2009,08,09,07,10,12.20
2009,08,09,07,11,12.20
2009,08,09,07,12,12.10
2009,08,09,07,13,12.10
2009,08,09,07,14,12.00
2009,08,09,07,15,12.00
2009,08,09,07,16,12.00
2009,08,09,07,17,12.00
2009,08,09,07,18,12.00
2009,08,09,07,19,12.00
2009,08,09,07,20,12.10
2009,08,09,07,21,12.10
2009,08,09,07,22,12.10
2009,08,09,07,23,12.10
2009,08,09,07,24,12.10
2009,08,09,07,25,12.10
2009,08,09,07,26,12.10
2009,08,09,07,27,12.10
2009,08,09,07,28,12.10
2009,08,09,07,29,12.20
2009,08,09,07,30,12.20
2009,08,09,07,31,12.20
2009,08,09,07,32,12.20
2009,08,09,07,33,12.30
2009,08,09,07,34,12.30
2009,08,09,07,35,12.30
2009,08,09,07,36,12.30
2009,08,09,07,37,12.30
2009,08,09,07,38,12.40
2009,08,09,07,39,12.40
2009,08,09,07,40,12.40
2009,08,09,07,41,12.50
2009,08,09,07,42,12.50
2009,08,09,07,43,12.60
2009,08,09,07,44,12.60
2009,08,09,07,45,12.70
2009,08,09,07,46,12.70
2009,08,09,07,47,12.80
2009,08,09,07,48,12.80
2009,08,09,07,49,12.80
2009,08,09,07,50,12.80
2009,08,09,07,51,12.80
2009,08,09,07,52,12.90
2009,08,09,07,53,12.90
2009,08,09,07,54,13.00
2009,08,09,07,55,13.00
2009,08,09,07,56,13.10
2009,08,09,07,57,13.20
2009,08,09,07,58,13.20
2009,08,09,07,59,13.30
2009,08,09,08,00,13.30
2009,08,09,08,01,13.30
2009,08,09,08,02,13.30
2009,08,09,08,03,13.40
2009,08,09,08,04,13.50
2009,08,09,08,05,13.50
2009,08,09,08,06,13.50
2009,08,09,08,07,13.60
2009,08,09,08,08,13.60
2009,08,09,08,09,13.60
2009,08,09,08,10,13.70
2009,08,09,08,11,13.70
2009,08,09,08,12,13.70
2009,08,09,08,13,13.70
2009,08,09,08,14,13.70
2009,08,09,08,15,13.70
2009,08,09,08,16,13.70
2009,08,09,08,17,13.70
2009,08,09,08,18,13.70
2009,08,09,08,19,13.70
2009,08,09,08,20,13.70
2009,08,09,08,21,13.70
2009,08,09,08,22,13.70
2009,08,09,08,23,13.70
2009,08,09,08,24,13.80
2009,08,09,08,25,13.80
2009,08,09,08,26,13.90
2009,08,09,08,27,13.90
2009,08,09,08,28,13.90
2009,08,09,08,29,14.00
2009,08,09,08,30,14.00
2009,08,09,08,31,13.90
2009,08,09,08,32,13.90
2009,08,09,08,33,13.90
2009,08,09,08,34,13.90
2009,08,09,08,35,13.90
2009,08,09,08,36,13.90
2009,08,09,08,37,13.90
2009,08,09,08,38,13.90
2009,08,09,08,39,14.00
2009,08,09,08,40,14.00
2009,08,09,08,41,14.00
2009,08,09,08,42,14.10
2009,08,09,08,43,14.10
2009,08,09,08,44,14.20
2009,08,09,08,45,14.20
2009,08,09,08,46,14.20
2009,08,09,08,47,14.20
2009,08,09,08,48,14.20
2009,08,09,08,49,14.20
2009,08,09,08,50,14.20
2009,08,09,08,51,14.20
2009,08,09,08,52,14.30
2009,08,09,08,53,14.30
2009,08,09,08,54,14.30
2009,08,09,08,55,14.40
2009,08,09,08,56,14.40
2009,08,09,08,57,14.40
2009,08,09,08,58,14.40
2009,08,09,08,59,14.40
2009,08,09,09,00,14.40
2009,08,09,09,01,14.40
2009,08,09,09,02,14.40
2009,08,09,09,03,14.50
2009,08,09,09,04,14.50
2009,08,09,09,05,14.50
2009,08,09,09,06,14.60
2009,08,09,09,07,14.60
2009,08,09,09,08,14.60
2009,08,09,09,09,14.70
2009,08,09,09,10,14.70
2009,08,09,09,11,14.80
2009,08,09,09,12,14.80
2009,08,09,09,13,14.80
2009,08,09,09,14,14.80
2009,08,09,09,15,14.80
2009,08,09,09,16,14.70
2009,08,09,09,17,14.50
2009,08,09,09,18,14.20
2009,08,09,09,19,13.80
2009,08,09,09,20,13.60
2009,08,09,09,21,13.40
2009,08,09,09,22,13.30
2009,08,09,09,23,13.20
2009,08,09,09,24,13.20
2009,08,09,09,25,13.00
2009,08,09,09,26,12.90
2009,08,09,09,27,12.80
2009,08,09,09,28,12.80
2009,08,09,09,29,12.80
2009,08,09,09,30,12.80
2009,08,09,09,31,12.80
2009,08,09,09,32,12.80
2009,08,09,09,33,12.80
2009,08,09,09,34,12.70
2009,08,09,09,35,12.70
2009,08,09,09,36,12.80
2009,08,09,09,37,12.80
2009,08,09,09,38,12.90
2009,08,09,09,39,12.90
2009,08,09,09,40,12.90
2009,08,09,09,41,12.90
2009,08,09,09,42,12.90
2009,08,09,09,43,12.90
2009,08,09,09,44,12.90
2009,08,09,09,45,12.90
2009,08,09,09,46,12.90
2009,08,09,09,47,13.00
2009,08,09,09,48,13.00
2009,08,09,09,49,13.00
2009,08,09,09,50,13.00
2009,08,09,09,51,13.10
2009,08,09,09,52,13.20
2009,08,09,09,53,13.30
2009,08,09,09,54,13.30
2009,08,09,09,55,13.30
2009,08,09,09,56,13.30
2009,08,09,09,57,13.40
2009,08,09,09,58,13.40
2009,08,09,09,59,13.40
2009,08,09,10,00,13.50
2009,08,09,10,01,13.50
2009,08,09,10,02,13.50
2009,08,09,10,03,13.50
2009,08,09,10,04,13.40
2009,08,09,10,05,13.30
2009,08,09,10,06,13.30
2009,08,09,10,07,13.30
2009,08,09,10,08,13.40
2009,08,09,10,09,13.50
2009,08,09,10,10,13.60
2009,08,09,10,11,13.70
2009,08,09,10,12,13.70
2009,08,09,10,13,13.90
2009,08,09,10,14,14.00
2009,08,09,10,15,14.20
2009,08,09,10,16,14.30
2009,08,09,10,17,14.40
2009,08,09,10,18,14.50
2009,08,09,10,19,14.60
2009,08,09,10,20,14.60
2009,08,09,10,21,14.70
2009,08,09,10,22,14.80
2009,08,09,10,23,14.80
2009,08,09,10,24,14.90
2009,08,09,10,25,14.90
2009,08,09,10,26,15.00
2009,08,09,10,27,15.10
2009,08,09,10,28,15.10
2009,08,09,10,29,15.20
2009,08,09,10,30,15.20
2009,08,09,10,31,15.30
2009,08,09,10,32,15.30
2009,08,09,10,33,15.40
2009,08,09,10,34,15.40
2009,08,09,10,35,15.50
2009,08,09,10,36,15.50
2009,08,09,10,37,15.50
2009,08,09,10,38,15.50
2009,08,09,10,39,15.50
2009,08,09,10,40,15.20
2009,08,09,10,41,14.90
2009,08,09,10,42,14.60
2009,08,09,10,43,14.40
2009,08,09,10,44,14.20
2009,08,09,10,45,14.20
2009,08,09,10,46,14.30
2009,08,09,10,47,14.40
2009,08,09,10,48,14.40
2009,08,09,10,49,14.30
2009,08,09,10,50,14.30
2009,08,09,10,51,14.30
2009,08,09,10,52,14.40
2009,08,09,10,53,14.50
2009,08,09,10,54,14.50
2009,08,09,10,55,14.60
2009,08,09,10,56,14.70
2009,08,09,10,57,14.80
2009,08,09,10,58,14.90
2009,08,09,10,59,15.00
2009,08,09,11,00,15.00
2009,08,09,11,01,15.00
2009,08,09,11,02,15.00
2009,08,09,11,03,15.10
2009,08,09,11,04,15.20
2009,08,09,11,05,15.20
2009,08,09,11,06,15.50
2009,08,09,11,07,15.60
2009,08,09,11,08,15.70
2009,08,09,11,09,15.80
2009,08,09,11,10,15.80
2009,08,09,11,11,15.90
2009,08,09,11,12,16.10
2009,08,09,11,13,16.10
2009,08,09,11,14,16.20
2009,08,09,11,15,16.30
2009,08,09,11,16,16.40
2009,08,09,11,17,16.40
2009,08,09,11,18,16.40
2009,08,09,11,19,16.40
2009,08,09,11,20,16.40
2009,08,09,11,21,16.50
2009,08,09,11,22,16.50
2009,08,09,11,23,16.60
2009,08,09,11,24,16.60
2009,08,09,11,25,16.60
2009,08,09,11,26,16.60
2009,08,09,11,27,16.50
2009,08,09,11,28,16.40
2009,08,09,11,29,16.40
2009,08,09,11,30,16.30
2009,08,09,11,31,16.20
2009,08,09,11,32,15.90
2009,08,09,11,33,15.60
2009,08,09,11,34,15.50
2009,08,09,11,35,15.50
2009,08,09,11,36,15.60
2009,08,09,11,37,15.60
2009,08,09,11,38,15.70
2009,08,09,11,39,15.60
2009,08,09,11,40,15.40
2009,08,09,11,41,15.30
2009,08,09,11,42,15.30
2009,08,09,11,43,15.30
2009,08,09,11,44,15.30
2009,08,09,11,45,15.30
2009,08,09,11,46,15.30
2009,08,09,11,47,15.30
2009,08,09,11,48,15.30
2009,08,09,11,49,15.20
2009,08,09,11,50,14.90
2009,08,09,11,51,14.80
2009,08,09,11,52,14.70
2009,08,09,11,53,14.70
2009,08,09,11,54,14.70
2009,08,09,11,55,14.70
2009,08,09,11,56,14.80
2009,08,09,11,57,14.90
2009,08,09,11,58,15.00
2009,08,09,11,59,15.20
2009,08,09,12,00,15.30
2009,08,09,12,01,15.40
2009,08,09,12,02,15.50
2009,08,09,12,03,15.60
2009,08,09,12,04,15.70
2009,08,09,12,05,15.80
2009,08,09,12,06,15.80
2009,08,09,12,07,15.80
2009,08,09,12,08,15.80
2009,08,09,12,09,15.90
2009,08,09,12,10,15.90
2009,08,09,12,11,15.90
2009,08,09,12,12,15.90
2009,08,09,12,13,15.90
2009,08,09,12,14,16.00
2009,08,09,12,15,16.10
2009,08,09,12,16,16.10
2009,08,09,12,17,16.10
2009,08,09,12,18,16.10
2009,08,09,12,19,15.90
2009,08,09,12,20,15.80
2009,08,09,12,21,15.70
2009,08,09,12,22,15.70
2009,08,09,12,23,15.70
2009,08,09,12,24,15.80
2009,08,09,12,25,15.80
2009,08,09,12,26,15.80
2009,08,09,12,27,15.70
2009,08,09,12,28,15.60
2009,08,09,12,29,15.50
2009,08,09,12,30,15.50
2009,08,09,12,31,15.50
2009,08,09,12,32,15.60
2009,08,09,12,33,15.80
2009,08,09,12,34,15.90
2009,08,09,12,35,16.00
2009,08,09,12,36,16.20
2009,08,09,12,37,16.20
2009,08,09,12,38,16.20
2009,08,09,12,39,16.20
2009,08,09,12,40,16.20
2009,08,09,12,41,16.30
2009,08,09,12,42,16.30
2009,08,09,12,43,16.40
2009,08,09,12,44,16.50
2009,08,09,12,45,16.70
2009,08,09,12,46,16.80
2009,08,09,12,47,16.80
2009,08,09,12,48,16.90
2009,08,09,12,49,16.90
2009,08,09,12,50,16.80
2009,08,09,12,51,16.70
2009,08,09,12,52,16.70
2009,08,09,12,53,16.80
2009,08,09,12,54,16.80
2009,08,09,12,55,16.80
2009,08,09,12,56,16.80
2009,08,09,12,57,16.90
2009,08,09,12,58,16.80
2009,08,09,12,59,16.80
2009,08,09,13,00,16.80
2009,08,09,13,01,16.90
2009,08,09,13,02,16.90
2009,08,09,13,03,16.80
2009,08,09,13,04,16.70
2009,08,09,13,05,16.70
2009,08,09,13,06,16.70
2009,08,09,13,07,16.70
2009,08,09,13,08,16.70
2009,08,09,13,09,16.70
2009,08,09,13,10,16.70
2009,08,09,13,11,16.50
2009,08,09,13,12,16.20
2009,08,09,13,13,16.00
2009,08,09,13,14,15.80
2009,08,09,13,15,15.80
2009,08,09,13,16,15.80
2009,08,09,13,17,15.80
2009,08,09,13,18,15.80
2009,08,09,13,19,15.80
2009,08,09,13,20,15.80
2009,08,09,13,21,15.90
2009,08,09,13,22,15.90
2009,08,09,13,23,16.00
2009,08,09,13,24,16.20
2009,08,09,13,25,16.20
2009,08,09,13,26,16.30
2009,08,09,13,27,16.30
2009,08,09,13,28,16.40
2009,08,09,13,29,16.60
2009,08,09,13,30,16.70
2009,08,09,13,31,16.80
2009,08,09,13,32,16.80
2009,08,09,13,33,16.80
2009,08,09,13,34,16.90
2009,08,09,13,35,16.90
2009,08,09,13,36,17.00
2009,08,09,13,37,17.10
2009,08,09,13,38,17.10
2009,08,09,13,39,17.20
2009,08,09,13,40,17.30
2009,08,09,13,41,17.30
2009,08,09,13,42,17.30
2009,08,09,13,43,17.20
2009,08,09,13,44,17.10
2009,08,09,13,45,17.00
2009,08,09,13,46,16.90
2009,08,09,13,47,16.60
2009,08,09,13,48,16.40
2009,08,09,13,49,16.30
2009,08,09,13,50,16.20
2009,08,09,13,51,16.10
2009,08,09,13,52,16.10
2009,08,09,13,53,16.10
2009,08,09,13,54,16.10
2009,08,09,13,55,16.20
2009,08,09,13,56,16.20
2009,08,09,13,57,16.30
2009,08,09,13,58,16.40
2009,08,09,13,59,16.40
2009,08,09,14,00,16.40
2009,08,09,14,01,16.30
2009,08,09,14,02,16.30
2009,08,09,14,03,16.30
2009,08,09,14,04,16.30
2009,08,09,14,05,16.40
2009,08,09,14,06,16.40
2009,08,09,14,07,16.40
2009,08,09,14,08,16.40
2009,08,09,14,09,16.40
2009,08,09,14,10,16.50
2009,08,09,14,11,16.70
2009,08,09,14,12,16.80
2009,08,09,14,13,17.00
2009,08,09,14,14,17.20
2009,08,09,14,15,17.30
2009,08,09,14,16,17.40
2009,08,09,14,17,17.30
2009,08,09,14,18,17.40
2009,08,09,14,19,17.40
2009,08,09,14,20,17.30
2009,08,09,14,21,17.40
2009,08,09,14,22,17.40
2009,08,09,14,23,17.40
2009,08,09,14,24,17.50
2009,08,09,14,25,17.60
2009,08,09,14,26,17.60
2009,08,09,14,27,17.50
2009,08,09,14,28,17.40
2009,08,09,14,29,17.40
2009,08,09,14,30,17.50
2009,08,09,14,31,17.50
2009,08,09,14,32,17.50
2009,08,09,14,33,17.50
2009,08,09,14,34,17.50
2009,08,09,14,35,17.50
2009,08,09,14,36,17.40
2009,08,09,14,37,17.30
2009,08,09,14,38,17.20
2009,08,09,14,39,17.00
2009,08,09,14,40,16.80
2009,08,09,14,41,16.60
2009,08,09,14,42,16.30
2009,08,09,14,43,16.20
2009,08,09,14,44,16.10
2009,08,09,14,45,16.10
2009,08,09,14,46,16.00
2009,08,09,14,47,15.80
2009,08,09,14,48,15.70
2009,08,09,14,49,15.60
2009,08,09,14,50,15.50
2009,08,09,14,51,15.30
2009,08,09,14,52,15.30
2009,08,09,14,53,15.30
2009,08,09,14,54,15.30
2009,08,09,14,55,15.40
2009,08,09,14,56,15.50
2009,08,09,14,57,15.50
2009,08,09,14,58,15.40
2009,08,09,14,59,15.30
2009,08,09,15,00,15.30
2009,08,09,15,01,15.20
2009,08,09,15,02,15.10
2009,08,09,15,03,15.00
2009,08,09,15,04,15.00
2009,08,09,15,05,14.90
2009,08,09,15,06,14.70
2009,08,09,15,07,14.60
2009,08,09,15,08,14.50
2009,08,09,15,09,14.50
2009,08,09,15,10,14.50
2009,08,09,15,11,14.50
2009,08,09,15,12,14.40
2009,08,09,15,13,14.50
2009,08,09,15,14,14.50
2009,08,09,15,15,14.50
2009,08,09,15,16,14.50
2009,08,09,15,17,14.40
2009,08,09,15,18,14.40
2009,08,09,15,19,14.40
2009,08,09,15,20,14.40
2009,08,09,15,21,14.40
2009,08,09,15,22,14.40
2009,08,09,15,23,14.40
2009,08,09,15,24,14.50
2009,08,09,15,25,14.50
2009,08,09,15,26,14.60
2009,08,09,15,27,14.80
2009,08,09,15,28,14.80
2009,08,09,15,29,14.80
2009,08,09,15,30,14.80
2009,08,09,15,31,14.80
2009,08,09,15,32,14.80
2009,08,09,15,33,14.90
2009,08,09,15,34,14.90
2009,08,09,15,35,14.90
2009,08,09,15,36,14.90
2009,08,09,15,37,14.90
2009,08,09,15,38,14.80
2009,08,09,15,39,14.70
2009,08,09,15,40,14.60
2009,08,09,15,41,14.50
2009,08,09,15,42,14.50
2009,08,09,15,43,14.40
2009,08,09,15,44,14.40
2009,08,09,15,45,14.40
2009,08,09,15,46,14.30
2009,08,09,15,47,14.30
2009,08,09,15,48,14.30
2009,08,09,15,49,14.20
2009,08,09,15,50,14.20
2009,08,09,15,51,14.20
2009,08,09,15,52,14.20
2009,08,09,15,53,14.20
2009,08,09,15,54,14.20
2009,08,09,15,55,14.30
2009,08,09,15,56,14.30
2009,08,09,15,57,14.40
2009,08,09,15,58,14.40
2009,08,09,15,59,14.50
2009,08,09,16,00,14.60
2009,08,09,16,01,14.60
2009,08,09,16,02,14.70
2009,08,09,16,03,14.80
2009,08,09,16,04,14.90
2009,08,09,16,05,15.00
2009,08,09,16,06,15.00
2009,08,09,16,07,15.00
2009,08,09,16,08,15.10
2009,08,09,16,09,15.10
2009,08,09,16,10,15.20
2009,08,09,16,11,15.10
2009,08,09,16,12,15.10
2009,08,09,16,13,15.10
2009,08,09,16,14,15.10
2009,08,09,16,15,15.20
2009,08,09,16,16,15.30
2009,08,09,16,17,15.30
2009,08,09,16,18,15.40
2009,08,09,16,19,15.50
2009,08,09,16,20,15.60
2009,08,09,16,21,15.80
2009,08,09,16,22,15.80
2009,08,09,16,23,15.90
2009,08,09,16,24,15.90
2009,08,09,16,25,15.90
2009,08,09,16,26,15.90
2009,08,09,16,27,15.90
2009,08,09,16,28,15.90
2009,08,09,16,29,15.90
2009,08,09,16,30,16.10
2009,08,09,16,31,16.10
2009,08,09,16,32,16.20
2009,08,09,16,33,16.30
2009,08,09,16,34,16.50
2009,08,09,16,35,16.60
2009,08,09,16,36,16.80
2009,08,09,16,37,16.90
2009,08,09,16,38,17.00
2009,08,09,16,39,17.20
2009,08,09,16,40,17.30
2009,08,09,16,41,17.40
2009,08,09,16,42,17.50
2009,08,09,16,43,17.60
2009,08,09,16,44,17.70
2009,08,09,16,45,17.80
2009,08,09,16,46,17.90
2009,08,09,16,47,17.90
2009,08,09,16,48,17.90
2009,08,09,16,49,17.90
2009,08,09,16,50,17.90
2009,08,09,16,51,17.90
2009,08,09,16,52,17.90
2009,08,09,16,53,17.90
2009,08,09,16,54,17.90
2009,08,09,16,55,18.00
2009,08,09,16,56,18.10
2009,08,09,16,57,18.10
2009,08,09,16,58,18.10
2009,08,09,16,59,18.10
2009,08,09,17,00,18.10
2009,08,09,17,01,18.10
2009,08,09,17,02,18.10
2009,08,09,17,03,18.10
2009,08,09,17,04,18.10
2009,08,09,17,05,18.10
2009,08,09,17,06,18.10
2009,08,09,17,07,18.00
2009,08,09,17,08,17.90
2009,08,09,17,09,17.80
2009,08,09,17,10,17.80
2009,08,09,17,11,17.70
2009,08,09,17,12,17.60
2009,08,09,17,13,17.50
2009,08,09,17,14,17.60
2009,08,09,17,15,17.60
2009,08,09,17,16,17.60
2009,08,09,17,17,17.50
2009,08,09,17,18,17.50
2009,08,09,17,19,17.50